Theta_e
295 295 295 296 296 296 295 296 296 297 297 297 297 297 298 298 298 299 299 300 300 301 301 302 303 303 304 304 305 306 306 307 307 308 308 307 306 305 304 302 301 301 301 301 302 302 303 303 303 303 304 303 303 303 302 302 301 302 302 301 301 300 300 300 301 301 301 301 301
294 294 295 296 296 295 295 295 296 296 296 296 297 297 298 298 299 299 299 300 300 301 302 302 303 303 303 303 305 305 306 306 306 307 307 307 306 305 304 303 301 301 301 301 301 301 302 302 303 303 303 303 302 302 301 301 300 300 300 300 300 300 300 300 301 301 300 300 300
294 294 294 294 294 294 294 294 294 295 295 296 297 297 298 298 299 299 299 300 300 301 302 302 303 303 303 302 303 304 305 305 305 306 306 306 306 306 306 305 303 303 302 300 300 300 301 301 303 304 304 303 302 301 300 300 300 300 299 300 300 300 300 301 300 300 300 300 299
293 293 293 293 293 293 293 293 293 294 294 295 296 296 297 298 299 300 300 300 300 301 302 302 303 303 303 303 303 303 305 306 306 305 306 306 307 307 307 306 305 304 303 301 300 300 300 300 302 303 302 301 300 300 300 300 299 299 299 299 300 300 300 300 299 299 299 299 299
292 292 292 292 292 292 292 293 293 293 293 294 294 295 296 297 298 299 299 299 300 300 301 303 303 304 304 304 303 303 304 306 307 307 306 306 307 307 306 306 305 305 304 303 301 300 300 300 301 301 301 300 301 300 300 299 299 298 298 299 299 299 299 299 299 299 299 299 298
292 292 292 292 292 292 292 292 292 292 292 293 293 294 295 296 297 297 298 298 299 300 301 302 304 305 305 304 303 302 302 303 304 305 306 306 306 306 306 306 304 303 302 301 300 300 300 299 300 300 300 300 299 299 299 299 298 298 298 298 298 299 299 298 299 299 298 298 297
291 291 291 291 291 291 291 292 292 292 292 292 292 292 293 294 295 296 297 298 298 299 301 302 304 304 305 304 304 302 301 301 302 303 304 305 305 305 305 304 301 299 298 298 298 299 299 299 299 299 299 300 299 298 298 298 298 298 297 297 298 299 299 298 298 299 298 297 296
291 291 291 291 291 291 291 291 291 291 291 291 291 292 293 294 295 296 297 298 298 299 300 301 302 303 304 304 303 302 301 300 301 301 302 302 303 303 302 301 299 297 296 295 296 296 297 298 298 297 297 298 298 298 297 297 297 297 296 296 297 297 298 298 298 299 298 297 297
290 290 290 290 290 291 291 290 290 290 290 290 291 292 293 294 295 296 297 298 298 299 300 300 301 303 303 304 303 303 302 300 300 301 301 301 301 300 299 298 297 297 296 296 296 296 296 296 297 297 297 298 297 297 296 296 296 295 295 295 295 296 296 296 297 297 298 297 297
289 289 289 290 290 290 290 290 290 290 290 290 291 292 293 294 295 296 297 298 298 299 299 300 300 302 303 303 303 303 302 301 300 299 299 299 299 297 297 297 297 296 296 296 296 296 296 296 295 295 295 296 295 295 295 295 295 294 294 294 294 294 294 294 295 295 296 297 296
289 289 289 289 290 290 290 290 290 290 290 290 291 291 292 293 294 295 296 297 297 297 298 299 300 301 302 302 303 303 303 302 300 299 297 297 297 297 296 296 296 296 296 296 296 296 296 295 294 294 295 295 295 295 295 294 294 294 294 293 293 293 293 293 293 293 294 295 294
288 289 289 289 289 289 289 290 290 290 290 290 290 291 291 292 293 293 295 295 296 296 297 298 299 300 301 302 303 303 303 302 301 299 298 297 296 296 296 296 296 296 296 296 295 296 296 295 295 295 295 295 295 295 295 294 294 294 293 293 293 293 293 293 293 293 293 293 293
288 289 289 289 289 289 289 289 290 290 290 290 290 290 291 291 292 293 293 294 295 296 296 297 298 299 301 302 303 303 302 302 301 300 299 298 297 296 297 297 297 296 296 296 295 296 296 295 295 295 295 295 296 295 295 295 295 294 294 293 293 293 293 293 293 293 293 293 293
288 288 288 288 289 289 289 289 289 289 289 289 290 290 290 291 292 292 293 293 294 295 295 297 298 299 300 301 302 302 302 302 301 300 299 298 298 297 297 297 297 297 296 296 296 296 296 296 296 295 295 295 295 296 295 295 295 295 295 294 293 293 293 293 293 293 293 292 292
288 288 288 288 288 289 289 288 289 289 289 289 290 290 290 291 291 292 292 292 293 294 295 296 297 298 299 299 300 300 301 300 300 300 299 299 298 298 298 298 297 297 297 297 297 297 297 296 296 296 296 296 296 296 296 295 295 294 294 293 293 293 293 292 292 292 292 292 292
287 288 288 288 288 288 288 288 288 289 289 289 289 290 290 290 291 291 292 292 292 293 294 294 295 297 298 299 299 299 299 299 299 299 299 298 298 298 298 298 298 298 299 299 299 298 298 298 297 297 297 296 295 295 295 294 294 293 293 293 293 292 292 292 292 292 292 292 292
287 287 288 288 288 288 287 288 288 288 288 289 289 290 290 290 290 291 291 291 292 293 293 294 294 296 297 298 299 299 299 299 299 299 298 298 298 298 298 298 299 299 299 299 299 298 298 297 297 297 296 295 295 294 294 293 293 292 292 292 292 291 291 292 291 291 291 291 291
286 287 287 288 288 287 287 288 288 288 288 288 289 289 290 290 290 290 291 291 292 292 293 293 294 295 296 297 298 298 298 298 299 299 299 299 299 299 299 299 299 299 299 299 298 297 297 296 296 296 295 294 294 293 293 292 292 291 291 291 291 290 290 291 290 291 291 291 291
286 287 287 287 287 287 287 288 288 288 288 289 289 289 289 289 289 290 290 291 292 292 293 293 294 295 296 296 297 298 299 298 299 299 299 299 299 299 299 299 299 299 299 298 297 296 296 295 295 294 294 293 293 292 292 291 291 291 290 290 290 290 290 290 290 290 291 291 291
286 286 287 287 287 287 287 287 287 288 288 289 289 289 289 289 289 289 290 290 292 293 293 293 294 294 295 296 296 297 298 299 299 299 299 299 298 298 297 297 297 297 297 297 296 295 295 295 294 294 293 293 292 291 291 291 291 290 290 290 290 290 290 290 290 290 291 291 291
286 286 287 287 287 287 287 287 287 288 288 288 289 289 289 289 289 289 290 291 292 293 293 293 293 294 294 294 294 295 296 298 299 299 298 298 297 296 296 296 295 295 295 295 294 294 294 293 293 293 293 292 291 291 291 290 290 290 290 290 290 290 290 290 290 290 290 291 291
286 286 287 287 287 287 287 287 287 288 288 288 288 289 289 289 289 289 290 291 293 293 292 292 292 291 291 292 292 292 294 296 297 297 296 296 295 295 295 294 293 293 292 292 292 292 292 292 292 292 292 291 291 291 290 290 290 290 289 289 289 290 290 290 290 290 290 290 291
286 286 286 287 287 287 287 287 287 287 287 288 288 288 289 289 289 289 290 290 292 292 291 290 290 290 290 290 290 291 292 293 294 294 294 294 293 293 293 293 292 291 291 290 290 290 290 290 291 291 291 290 290 290 290 289 289 289 289 289 289 289 289 289 290 290 290 290 290
286 286 286 286 286 286 286 286 286 286 287 287 287 288 288 289 289 289 289 289 290 290 290 290 290 289 289 289 289 290 290 291 292 292 292 292 292 292 292 292 291 291 291 290 290 290 290 289 289 289 289 289 289 289 289 289 289 288 288 288 288 288 288 289 289 289 289 289 290
286 286 286 286 286 286 286 286 286 286 286 286 287 288 288 289 289 288 288 288 289 289 289 289 289 289 288 288 288 289 289 290 290 290 291 291 291 291 291 292 292 292 292 292 293 293 292 291 289 288 288 288 288 288 288 288 288 287 287 287 287 287 287 287 288 288 289 289 289
285 285 285 285 285 285 285 285 285 285 286 286 286 287 288 288 289 288 288 288 288 288 289 288 288 289 288 287 287 287 288 289 289 289 290 290 290 291 291 292 292 292 293 293 294 294 293 292 291 289 288 287 288 288 287 287 287 287 287 286 286 286 286 286 287 287 288 288 288
285 285 285 285 285 285 285 285 285 285 285 286 286 286 287 288 288 288 287 287 287 287 288 288 288 288 288 287 286 286 286 287 288 288 289 289 290 290 291 291 292 293 293 294 294 294 294 293 292 291 289 288 288 287 287 287 287 287 286 286 286 286 286 286 286 286 286 287 287
284 284 284 284 284 285 285 285 285 285 285 285 286 286 287 288 288 288 287 287 287 287 287 287 287 287 287 286 286 285 285 285 286 287 287 288 289 290 290 291 291 292 293 295 294 294 294 293 293 292 290 289 288 287 287 286 286 286 286 286 286 286 286 286 286 286 286 286 286
284 284 284 284 284 284 284 285 285 285 285 285 285 286 287 287 288 287 287 286 286 286 286 286 286 286 286 285 285 285 285 285 285 285 285 286 287 288 289 290 291 292 293 294 294 294 294 293 293 292 291 290 288 287 286 285 285 285 285 285 285 285 285 285 285 285 286 286 286
284 283 283 283 284 284 284 284 285 285 285 285 285 285 286 286 287 287 287 286 286 286 286 286 286 285 285 285 285 285 284 284 284 284 284 284 285 285 287 288 289 291 293 294 294 293 293 293 292 292 291 290 288 286 285 285 284 284 284 284 283 283 283 283 284 284 284 285 285
283 283 282 283 283 283 283 284 284 284 284 284 284 285 285 285 286 286 287 286 286 286 286 286 285 285 285 285 285 285 284 284 284 284 284 284 284 284 285 286 288 290 292 293 293 293 293 293 292 292 291 290 288 286 285 284 284 284 283 283 283 282 282 283 283 283 283 284 284
282 282 281 282 282 282 283 283 283 284 284 284 284 284 284 284 285 286 287 287 286 286 286 285 285 284 284 285 285 285 284 284 284 284 284 284 283 284 284 285 286 288 291 293 293 292 292 292 292 291 290 289 288 286 284 284 283 283 283 282 282 282 282 282 282 282 283 283 283
282 281 281 281 281 282 282 283 283 283 283 283 283 283 283 284 285 285 286 287 286 286 285 285 284 284 284 284 284 284 284 284 284 284 284 284 283 283 284 284 285 287 290 292 292 292 292 291 291 290 290 289 287 285 284 283 283 283 283 282 282 281 281 281 281 282 282 283 283
281 281 280 280 281 281 281 282 282 282 282 282 282 282 283 283 284 284 285 286 286 286 285 285 285 284 284 284 284 284 284 284 284 284 283 283 283 283 283 283 284 287 290 291 291 292 291 291 290 290 289 288 286 284 283 282 282 282 282 282 281 281 281 281 281 281 282 283 283
281 280 280 280 280 280 281 281 281 281 281 281 281 282 282 283 283 284 285 286 286 286 286 286 285 285 285 284 284 284 284 284 283 283 283 283 282 282 282 282 283 286 289 290 290 291 291 291 290 289 288 287 284 283 282 281 282 282 282 281 281 281 281 280 281 281 282 283 284
280 280 280 280 280 280 280 280 280 280 280 280 280 281 282 282 283 284 285 286 286 286 286 285 285 285 284 284 284 284 284 283 283 283 283 283 282 281 281 281 282 284 287 289 289 290 291 291 290 288 287 285 283 282 281 281 281 281 281 281 281 281 280 280 281 281 282 283 284
280 280 280 279 279 279 279 279 279 279 279 279 280 281 281 282 282 283 284 285 285 285 285 285 285 285 284 284 284 283 284 284 283 283 283 283 282 281 280 280 281 283 286 288 289 290 291 291 289 288 286 283 282 281 281 281 281 280 280 280 281 280 280 280 280 281 282 283 284
280 280 279 279 279 279 279 279 278 279 279 279 280 280 281 282 282 283 284 285 284 284 285 285 285 285 284 284 284 283 283 284 284 283 283 283 282 282 281 280 280 282 284 288 289 290 291 290 289 287 285 283 281 281 280 280 280 280 280 279 280 280 280 280 281 282 283 285 287
279 279 279 279 278 278 278 278 278 278 278 279 279 280 281 282 282 282 283 284 284 284 284 285 285 285 285 285 284 283 283 283 283 283 283 282 283 283 282 280 280 281 284 287 289 290 290 289 288 287 286 283 281 281 280 279 279 279 279 279 280 280 281 280 281 282 283 284 287
279 279 279 279 278 278 278 278 278 278 278 279 279 280 281 281 282 282 283 283 283 283 284 284 284 284 285 285 284 283 282 282 282 283 283 283 283 284 283 281 280 281 283 286 288 290 290 288 288 287 285 283 281 280 280 279 278 278 278 279 280 280 280 280 281 281 281 281 284
279 279 279 278 278 278 278 278 278 278 279 279 279 280 281 282 282 282 282 282 282 282 283 283 284 284 284 285 284 283 282 282 282 282 282 283 283 283 283 281 280 280 281 284 287 289 290 288 288 287 285 283 281 280 279 279 278 278 278 278 279 279 280 280 280 280 280 279 280
Wind_Speed
10 10 10 10 10 9 9 9 9 10 10 10 11 11 11 12 12 12 11 11 11 10 10 10 11 9 7 5 4 4 3 3 2 3 4 5 5 5 5 5 5 3 1 4 5 6 6 6 5 3 3 2 2 2 2 2 2 2 2 2 2 2 2 2 1 1 1 1 1
11 11 11 11 11 10 9 9 9 10 10 10 10 11 12 11 12 12 12 11 11 10 10 10 11 12 10 8 5 3 3 2 1 1 3 4 5 5 5 5 6 5 3 2 4 5 5 6 5 4 3 3 3 2 2 2 2 3 2 1 1 1 1 1 1 1 1 1 1
12 12 11 11 11 10 10 10 10 11 12 12 11 11 12 11 11 11 11 12 12 12 11 11 12 13 13 11 8 4 3 3 1 0 1 2 3 4 5 6 7 7 6 2 2 4 5 5 5 4 4 3 3 3 2 2 2 2 2 1 0 0 1 1 1 1 1 1 1
12 12 11 11 12 12 12 10 12 13 13 12 13 13 12 12 11 11 12 13 14 13 13 12 12 12 13 13 11 8 5 4 3 2 1 1 2 3 4 6 8 9 8 6 1 3 5 5 4 4 4 4 4 3 2 2 2 2 1 0 0 0 0 0 1 1 1 1 1
12 12 11 11 13 13 12 12 13 14 13 12 12 12 12 12 12 12 12 13 13 13 14 15 12 11 11 13 14 12 9 5 5 4 3 3 2 3 4 8 9 10 10 9 5 3 5 6 4 3 3 4 4 3 3 3 3 2 2 1 1 1 1 0 0 0 1 1 0
12 12 12 12 13 13 12 12 14 14 14 13 13 14 13 12 12 13 13 13 14 15 16 16 14 12 11 12 13 13 11 8 6 5 6 6 5 6 8 10 9 8 8 8 5 4 6 6 4 3 3 3 3 3 4 4 3 3 2 2 1 1 1 1 1 1 1 1 0
13 13 13 13 14 13 13 14 14 14 14 13 14 16 16 16 16 16 16 15 14 14 14 14 13 12 11 11 12 13 12 10 7 6 6 7 8 9 11 11 8 6 5 6 4 2 3 5 4 3 3 3 3 3 3 3 2 2 2 2 1 1 1 1 1 1 1 1 0
13 13 13 14 14 14 15 16 15 14 13 13 14 16 18 18 19 18 17 15 14 13 13 12 13 13 12 11 11 12 12 12 9 6 5 6 8 9 10 9 5 3 2 2 3 3 2 1 2 3 3 3 3 3 3 3 2 2 2 3 3 2 2 1 2 2 1 1 1
13 13 14 14 14 15 15 16 15 14 14 14 15 16 18 18 19 18 16 14 13 13 13 13 14 15 14 12 12 11 11 11 9 5 4 6 7 8 8 7 4 1 1 2 3 4 4 3 1 2 3 3 3 3 4 4 3 3 2 2 3 3 3 2 2 1 1 1 1
14 14 14 14 15 15 16 15 15 14 14 14 15 16 17 18 18 17 15 13 14 14 14 14 15 15 15 13 12 11 10 9 9 7 3 3 5 6 7 6 5 3 2 2 3 3 4 3 2 1 3 4 4 5 6 6 5 3 2 1 2 2 3 2 1 1 1 1 1
15 15 15 15 15 16 16 15 14 14 14 14 15 16 17 16 16 16 15 15 15 16 16 15 15 15 15 13 11 11 10 9 8 8 7 2 2 4 5 5 4 4 3 2 2 2 3 2 2 2 2 4 5 6 6 6 5 3 2 1 1 2 2 3 2 2 1 0 0
15 15 15 15 16 16 15 15 14 13 14 15 16 16 15 15 15 16 17 17 17 16 15 15 16 15 14 12 11 10 10 10 9 8 7 6 2 2 3 3 3 3 2 2 2 2 3 3 2 2 3 4 4 5 6 6 5 4 3 3 2 3 3 4 4 3 2 2 2
15 15 15 15 16 16 15 14 13 13 14 15 15 15 14 14 15 16 16 16 16 15 14 15 15 15 14 12 11 10 10 11 9 8 7 6 3 1 2 3 3 2 2 1 2 2 3 3 2 2 3 5 5 6 6 7 6 5 5 4 4 4 4 5 5 4 4 4 4
14 15 15 15 16 15 15 14 13 13 13 15 15 14 14 13 14 15 14 14 15 14 14 14 13 13 13 13 11 10 9 9 9 9 7 6 4 2 1 2 2 2 1 1 2 2 3 3 3 3 4 6 6 7 7 7 7 6 6 5 5 4 5 5 5 5 5 5 5
15 15 16 16 16 15 14 14 12 12 13 14 14 14 13 13 13 14 14 14 14 13 13 13 12 12 12 13 12 10 7 6 7 8 8 7 6 5 4 3 3 3 3 2 2 3 3 4 4 5 6 7 8 8 8 8 8 7 6 6 5 5 5 5 5 5 5 5 5
15 15 15 15 15 15 14 14 12 11 12 13 14 14 14 13 13 13 14 14 13 12 11 13 13 12 11 11 11 10 8 5 4 4 5 6 6 6 6 6 6 5 5 5 4 4 4 4 5 6 7 8 9 9 9 9 9 8 8 7 6 6 5 5 5 5 5 5 5
15 15 14 15 15 15 15 14 13 12 13 14 15 15 14 13 12 13 14 15 12 12 12 13 13 12 11 10 9 8 8 7 5 3 2 3 3 4 5 6 6 7 7 7 6 6 5 5 6 8 8 9 9 10 10 10 10 9 9 8 7 6 6 5 5 5 5 6 6
15 14 14 14 15 15 15 15 15 14 15 16 15 15 14 14 14 14 14 15 13 13 13 13 12 12 11 10 8 7 7 7 7 6 4 4 3 1 1 2 4 5 6 7 8 8 7 8 8 9 9 10 10 10 10 11 10 10 9 8 8 7 6 6 5 5 5 6 6
15 14 14 14 15 15 15 16 16 15 15 15 15 15 15 15 15 15 14 14 14 13 12 12 11 11 10 10 9 7 6 5 6 6 6 6 5 5 5 5 4 4 5 7 8 8 8 9 10 10 10 10 10 11 11 11 11 10 9 8 8 7 7 6 6 6 6 7 6
15 15 14 14 14 15 15 15 16 16 16 15 15 16 16 17 16 16 15 15 14 12 11 10 10 10 10 11 11 10 8 4 3 4 5 6 7 8 9 9 8 7 7 7 7 8 8 9 10 10 11 11 12 12 12 11 11 10 9 8 7 7 7 7 7 7 7 7 7
14 14 14 14 14 14 14 15 15 16 16 16 16 17 17 17 16 16 16 16 13 11 10 11 11 12 12 12 13 13 11 7 5 6 7 8 10 10 10 10 10 10 10 9 8 8 8 9 9 10 11 11 12 12 12 11 10 10 9 8 7 7 7 7 7 8 8 8 7
14 13 13 13 14 14 14 15 15 16 16 17 17 17 17 16 16 16 16 15 13 12 12 13 14 14 15 14 14 14 13 10 10 11 11 11 11 11 11 11 11 12 11 11 9 9 8 8 9 10 10 11 11 12 12 11 10 9 9 8 8 8 8 8 7 7 7 7 7
14 13 13 13 13 14 14 15 15 16 17 17 17 17 17 16 15 15 15 15 14 13 13 12 13 14 15 14 14 14 13 12 13 13 13 12 12 11 11 11 11 11 11 9 9 9 8 8 9 9 9 10 11 12 11 11 10 9 9 8 8 8 8 7 7 6 6 6 6
14 14 13 12 13 13 14 14 15 16 17 17 18 17 16 15 14 14 14 15 15 14 13 11 11 13 14 14 14 14 14 14 14 14 13 12 11 11 10 9 10 10 9 9 9 9 9 8 8 8 8 9 10 10 10 10 9 9 8 8 7 7 7 6 6 6 6 6 5
14 14 14 14 14 13 13 14 15 16 17 17 18 17 16 14 13 13 13 14 14 14 14 13 13 13 13 14 14 14 14 14 14 13 13 12 11 10 9 8 8 9 9 11 14 15 13 10 8 7 6 7 8 9 9 9 9 8 7 7 7 6 6 6 6 6 5 5 4
14 15 15 15 14 14 13 14 14 15 16 17 18 17 15 13 11 12 12 13 13 14 14 13 13 13 13 13 15 15 15 14 14 13 13 11 11 10 9 8 8 8 10 14 17 17 16 15 12 9 7 6 7 8 8 8 8 7 7 7 6 6 6 5 5 5 5 4 4
14 15 15 15 14 14 13 13 14 15 16 17 18 17 15 12 10 11 12 12 12 12 12 12 12 13 13 12 15 16 15 14 14 14 14 13 12 11 10 9 8 9 11 15 17 17 16 15 14 12 9 7 7 7 7 6 6 6 6 6 6 6 5 5 5 4 4 3 3
14 15 15 15 15 14 13 13 14 14 15 16 17 17 16 13 11 10 11 11 11 11 10 10 10 10 10 10 13 14 15 15 14 14 14 14 14 13 12 10 10 11 14 17 17 16 16 15 14 13 11 8 6 5 5 5 5 5 5 5 5 5 5 5 4 4 3 3 3
14 15 15 15 15 14 14 14 14 14 15 15 16 17 16 14 12 10 10 11 11 10 9 8 8 8 9 10 11 12 13 14 13 13 14 15 15 14 13 12 11 13 16 19 17 16 15 14 13 12 11 9 6 4 4 4 5 5 5 5 5 5 5 5 5 5 4 4 4
14 14 14 14 14 14 14 14 14 14 14 14 15 16 16 15 13 11 10 10 10 10 8 8 8 9 10 10 10 10 11 11 12 12 13 15 15 14 14 13 12 12 14 17 16 15 14 13 12 11 10 9 6 5 4 4 5 5 5 5 6 6 6 6 6 6 6 5 5
14 14 14 14 14 14 14 14 13 14 14 14 15 15 16 16 14 13 11 9 9 9 9 8 9 10 10 9 9 9 10 10 11 11 12 13 13 13 13 13 13 13 14 16 15 14 13 12 11 10 10 9 6 5 4 5 5 5 5 6 6 7 6 6 6 7 7 6 6
14 14 13 13 14 14 13 13 13 13 13 14 14 15 16 16 15 13 11 9 9 9 9 9 9 10 10 9 9 9 9 9 10 11 11 11 12 12 12 12 12 13 14 16 14 13 12 11 11 10 10 9 7 5 5 5 5 6 6 7 7 7 6 6 6 6 6 6 6
14 14 13 13 13 13 13 13 13 13 13 13 14 15 15 15 15 13 11 9 9 9 9 8 9 9 9 9 9 9 9 9 9 10 11 11 11 11 11 10 9 11 14 16 13 12 10 10 10 10 10 10 7 6 5 5 5 5 6 6 6 6 6 6 6 6 6 6 6
14 13 13 13 13 13 13 13 13 13 14 13 14 14 14 14 15 14 13 11 9 8 7 7 7 7 7 7 7 7 8 8 8 8 8 9 9 10 10 8 7 10 14 14 12 10 8 8 8 9 10 10 7 5 5 5 5 5 6 6 6 6 6 5 5 5 5 6 5
13 13 13 13 13 13 13 13 13 14 14 14 13 13 13 13 14 14 13 13 11 9 7 6 6 6 6 6 6 7 7 7 7 7 7 7 8 8 8 8 8 10 13 13 11 9 7 6 6 8 9 9 6 5 5 5 5 5 6 6 6 5 5 5 5 5 5 5 6
14 14 14 14 13 13 13 13 14 14 15 14 13 13 12 12 12 12 13 13 12 10 8 7 6 6 6 6 6 6 7 6 6 6 6 7 7 7 7 7 7 10 12 12 11 10 7 5 7 9 10 8 6 5 5 5 4 5 5 6 5 4 4 3 3 4 4 4 5
14 14 14 14 14 14 13 13 14 14 15 15 13 12 11 11 11 11 12 12 11 11 9 8 7 7 7 7 6 6 6 6 6 6 6 7 6 6 6 6 7 9 11 13 13 12 9 7 9 10 10 7 5 5 5 5 4 4 4 5 4 3 3 3 3 3 3 4 6
14 14 14 14 14 13 13 13 13 14 15 15 13 12 11 10 9 10 11 11 10 10 10 8 8 7 7 6 6 6 6 6 6 6 6 6 6 6 6 6 6 8 11 13 14 12 11 11 12 12 10 7 5 5 5 4 4 4 3 3 3 3 3 3 4 4 5 7 10
14 14 14 13 13 13 13 13 13 14 14 14 13 12 11 10 9 9 9 9 8 8 8 8 8 7 6 6 6 6 6 6 5 5 5 5 6 7 7 6 6 8 10 14 14 12 12 13 14 13 11 8 5 4 4 4 4 4 3 2 2 3 3 4 4 5 7 10 14
14 14 14 13 13 13 13 14 14 13 13 13 13 13 12 11 10 9 9 7 7 7 7 7 7 6 6 6 5 5 5 5 4 4 4 5 6 8 8 5 6 7 10 13 14 12 11 13 13 13 11 7 5 4 4 4 4 4 4 3 3 3 4 4 5 6 7 9 12
13 14 14 14 14 13 14 14 14 14 13 13 13 12 11 11 10 9 8 8 9 8 8 7 7 7 6 6 5 5 5 5 5 5 4 4 5 6 6 4 5 6 8 11 13 11 10 11 12 12 10 7 5 4 4 4 4 4 4 4 4 4 4 5 5 6 6 7 8
Wind_Direction
344 340 336 333 330 328 325 321 319 318 317 317 315 313 311 308 306 304 302 300 298 298 300 303 302 296 284 265 249 236 234 255 297 338 2 12 13 9 356 328 306 289 204 133 127 125 122 118 113 107 102 99 96 89 82 79 80 76 73 74 91 109 115 111 118 126 128 126 135
341 338 335 332 331 329 325 322 321 320 320 318 314 312 310 308 306 304 303 301 300 302 304 305 306 303 296 281 265 240 215 207 263 354 8 13 13 11 2 342 316 304 292 134 123 124 125 123 118 114 108 99 85 72 59 53 63 60 52 41 70 104 110 112 142 156 152 143 137
338 336 335 333 333 331 328 323 323 322 321 318 315 312 310 308 307 306 306 306 307 307 307 308 310 309 305 295 282 259 219 186 172 94 21 15 10 0 350 337 318 304 294 280 122 120 121 121 120 119 118 111 98 85 67 50 61 61 52 355 12 108 117 145 174 165 148 142 141
338 336 335 333 333 331 328 324 324 323 322 319 315 313 311 309 309 309 310 311 310 309 307 307 308 310 308 303 293 279 251 199 177 171 189 326 347 337 322 311 304 294 285 275 226 126 117 116 116 118 119 116 111 108 101 86 78 76 71 6 12 40 113 188 176 155 137 137 145
337 336 335 333 332 330 327 325 325 324 322 319 317 315 313 312 311 311 311 311 309 307 306 305 303 303 303 302 297 288 273 237 200 189 200 235 266 283 278 272 272 271 268 261 237 160 122 116 113 112 110 107 109 111 107 94 77 65 50 30 18 7 352 320 289 108 107 101 93
337 335 334 332 331 329 328 327 326 325 322 319 316 315 314 314 313 311 309 307 304 303 302 302 300 299 298 297 297 293 284 265 236 207 198 208 226 243 249 248 250 255 260 259 233 173 137 127 120 114 111 107 108 108 104 93 75 58 39 20 15 7 352 331 340 46 82 85 46
335 334 333 332 331 330 330 329 327 325 321 317 316 315 314 313 311 309 306 304 302 302 302 301 300 298 296 294 295 294 290 279 258 225 198 194 203 217 227 233 239 247 260 275 272 232 159 141 132 124 116 110 106 101 95 88 75 48 16 358 10 31 28 343 354 24 55 76 294
335 334 333 332 331 331 331 330 327 324 321 318 316 315 314 313 312 310 309 306 304 303 302 301 299 297 293 290 290 293 293 287 271 242 199 182 182 188 198 210 222 241 278 331 342 343 342 149 139 130 118 108 102 97 91 87 73 35 357 342 346 358 13 12 10 17 23 11 313
336 335 334 333 333 332 331 329 326 322 319 317 316 316 316 315 316 315 314 311 310 309 306 302 300 297 293 286 284 287 292 296 289 269 212 174 166 165 166 170 172 172 20 26 29 20 9 354 50 133 128 116 110 100 92 85 75 55 24 355 344 342 346 358 10 24 31 20 325
337 336 335 334 334 333 331 328 325 322 319 318 319 319 319 319 320 319 318 316 316 314 311 306 303 298 293 285 279 277 281 293 301 299 278 175 157 152 151 149 144 136 114 74 61 50 38 19 8 94 128 119 112 102 93 84 77 68 50 20 346 331 329 335 355 25 48 50 312
337 336 336 335 334 333 331 328 325 324 323 323 323 323 322 321 320 319 318 318 317 315 313 310 306 301 294 285 276 269 267 273 290 302 306 292 143 134 134 132 129 127 125 121 102 86 73 57 27 52 107 117 110 104 98 91 86 78 65 41 14 349 339 339 349 360 18 42 357
337 336 336 336 335 333 330 328 326 326 327 326 326 324 323 320 319 318 317 317 316 315 314 314 312 308 300 289 276 265 258 256 266 283 296 301 321 86 102 107 109 113 117 121 109 100 92 83 63 61 83 104 103 99 95 94 90 82 68 48 39 28 14 3 1 3 10 24 24
336 336 337 337 336 333 331 329 328 328 328 327 326 324 322 318 317 317 316 316 315 315 316 318 318 315 310 299 284 267 253 244 244 252 267 283 295 23 91 97 102 106 109 107 98 99 101 99 93 84 82 87 91 92 92 94 91 86 76 61 49 38 26 15 10 13 20 28 28
336 337 338 338 336 334 332 331 330 328 327 326 324 323 320 317 317 317 316 314 315 315 316 317 319 320 319 316 304 284 260 239 230 228 233 248 250 231 158 134 127 125 121 109 103 111 118 122 118 105 95 91 92 93 93 93 91 88 82 71 59 45 31 20 18 22 27 30 27
337 338 338 338 337 335 334 333 330 328 326 324 323 322 321 318 317 316 315 314 314 314 315 317 317 320 323 326 325 317 298 261 234 222 218 220 222 218 204 183 166 153 142 132 123 123 126 129 124 114 106 102 100 97 95 93 91 87 83 76 68 55 41 29 28 31 35 36 31
337 338 338 337 336 336 335 334 331 328 326 324 323 322 321 318 317 316 316 315 314 314 315 317 317 318 320 326 333 336 334 322 287 246 225 217 214 208 197 181 168 157 147 137 128 120 116 118 114 109 106 104 102 99 97 95 91 87 82 76 70 61 50 40 38 38 40 43 38
337 337 336 336 335 335 334 334 332 329 327 324 324 322 321 319 318 317 317 318 315 314 315 317 318 317 318 322 330 337 341 343 338 324 293 261 236 212 191 173 161 153 144 134 126 119 113 109 106 103 100 100 99 98 97 95 91 87 83 78 72 65 57 48 45 43 43 45 40
338 337 335 335 335 334 333 332 331 328 326 323 323 322 321 321 320 319 318 317 315 315 316 317 317 317 318 321 327 333 338 341 342 346 350 348 332 308 177 143 141 137 133 126 122 117 113 108 104 101 99 98 98 97 95 93 91 88 85 81 76 70 63 54 49 46 45 45 40
339 338 336 335 335 334 332 332 331 328 325 323 322 323 323 323 322 320 319 317 316 316 317 318 317 319 322 328 331 333 333 331 336 346 358 12 18 24 30 39 56 82 100 106 108 108 108 105 104 104 104 102 99 97 94 91 89 88 86 83 78 73 66 59 52 49 46 44 38
340 338 337 335 335 334 333 333 332 329 326 324 324 325 326 326 325 324 323 321 320 321 322 324 328 333 339 345 347 345 340 329 338 359 17 31 36 36 35 34 36 45 58 72 83 91 97 101 103 105 105 103 100 97 94 91 90 88 86 83 79 74 68 61 55 51 47 43 38
340 338 336 335 335 335 335 335 333 332 330 328 329 329 330 330 330 330 330 329 330 336 344 349 355 359 2 4 3 358 353 350 14 35 44 48 47 44 41 39 39 41 45 50 57 67 79 90 96 99 100 99 98 96 94 92 90 88 86 83 79 74 70 64 58 52 47 43 38
339 337 336 335 335 336 337 337 337 336 335 334 333 333 334 334 335 337 339 339 347 359 8 9 12 13 13 13 11 7 4 7 24 36 42 46 47 46 45 44 44 44 44 44 45 51 60 71 79 86 90 93 94 93 93 92 91 88 86 83 79 75 71 67 62 56 51 45 40
338 338 337 335 335 337 339 340 341 341 341 339 338 337 337 338 341 345 349 351 0 10 16 15 16 16 16 16 15 14 15 20 30 36 40 42 46 48 50 51 50 49 47 44 42 43 47 56 62 70 77 85 88 89 89 89 89 87 85 82 79 77 74 71 68 64 57 49 42
338 338 338 336 336 337 339 342 344 345 344 342 340 340 341 342 348 353 357 360 6 11 15 15 15 17 18 19 19 21 24 29 35 38 41 42 46 51 55 58 59 58 56 53 49 47 46 47 50 57 65 75 80 83 84 84 84 83 83 81 80 79 77 76 74 70 64 56 46
338 338 338 337 337 338 341 345 347 348 347 344 343 342 343 346 353 359 3 6 9 12 15 16 17 18 20 21 22 24 27 31 35 37 39 40 43 48 54 61 64 65 65 64 61 59 56 53 51 51 56 65 74 77 79 78 79 79 80 80 80 79 77 74 72 71 68 62 52
339 339 339 338 337 339 342 346 348 348 348 346 345 344 345 349 356 2 7 11 14 15 16 17 18 20 22 23 25 26 27 29 30 32 35 37 39 42 47 54 60 65 68 69 67 65 63 61 59 57 56 58 68 72 75 76 77 78 79 79 78 76 74 71 68 67 66 66 57
341 340 340 339 338 340 342 346 348 349 350 349 347 346 347 350 357 4 8 13 17 18 19 19 21 22 23 25 27 28 28 27 26 27 29 32 35 37 39 45 50 56 62 64 67 67 67 65 64 62 60 60 65 71 75 77 78 79 78 77 75 73 72 69 65 62 61 60 54
343 342 341 341 341 342 344 346 349 351 351 351 348 347 347 350 358 4 9 12 18 21 23 23 22 21 22 24 27 29 29 29 27 26 25 26 29 31 33 37 41 46 50 53 56 59 62 64 64 63 62 61 61 65 70 75 75 73 72 70 68 65 63 60 56 52 49 45 40
343 342 342 343 344 344 346 348 350 351 352 351 349 348 349 351 357 3 9 12 18 22 25 25 23 23 24 24 27 30 31 31 29 27 26 25 26 26 26 28 35 41 44 44 45 48 53 58 60 61 61 59 53 50 53 60 62 60 58 56 52 48 46 43 39 36 33 30 24
343 343 342 343 344 346 347 349 349 351 352 352 350 350 351 352 355 1 8 12 14 18 22 25 27 27 26 24 26 29 32 32 31 30 29 27 26 23 21 20 23 31 38 40 39 40 43 49 55 60 63 64 60 55 52 55 57 56 54 51 47 44 42 39 35 31 28 24 18
343 342 341 341 343 345 346 347 349 351 352 353 352 352 353 353 355 359 6 9 9 10 15 20 25 27 26 25 28 30 32 33 33 33 32 29 26 23 19 15 13 18 26 33 35 35 35 38 45 53 60 66 68 65 60 62 61 59 56 53 49 46 43 40 36 32 29 26 24
343 341 340 340 341 342 343 345 348 350 352 353 353 353 354 353 354 356 360 5 5 5 8 13 19 21 23 23 27 29 32 34 35 35 33 31 27 23 18 13 8 8 12 20 26 29 30 30 35 41 49 58 63 66 68 70 67 64 60 58 54 50 46 43 38 33 32 32 34
343 341 340 339 340 340 341 343 346 349 352 353 354 354 353 353 352 352 354 1 3 3 4 9 13 16 18 20 23 27 32 35 37 37 35 32 28 23 18 12 4 1 4 8 14 20 25 26 30 36 43 49 54 60 67 75 73 69 65 62 57 54 50 45 41 38 37 39 43
343 341 340 340 340 340 341 343 345 348 351 353 353 353 352 352 352 351 351 355 357 359 2 7 11 14 16 18 20 24 29 35 39 40 38 35 30 24 18 10 358 355 357 2 4 10 17 24 31 39 44 48 50 54 63 74 77 76 73 68 62 55 49 45 42 42 44 46 47
342 341 341 341 341 342 342 344 346 348 349 351 351 351 351 351 351 350 349 349 351 352 356 5 10 14 15 15 17 20 24 30 37 42 44 41 35 28 18 6 351 348 352 358 359 2 11 27 41 49 53 53 51 53 59 66 75 78 78 75 67 58 50 44 42 44 48 52 50
342 341 341 342 343 343 344 345 347 348 348 349 349 350 350 350 350 349 348 347 346 347 351 2 10 15 15 13 12 14 18 22 30 36 41 43 40 31 18 2 347 345 350 357 359 1 10 41 60 63 61 57 53 51 53 56 63 71 76 80 75 65 54 42 37 40 49 60 58
342 342 343 343 344 344 345 346 348 348 347 346 347 348 349 349 349 348 347 347 346 345 348 358 8 13 13 10 7 6 8 14 21 27 31 34 36 31 19 360 346 344 347 355 360 5 18 57 73 72 65 56 51 50 50 50 52 58 66 79 83 77 62 38 28 25 37 61 67
344 344 344 344 344 344 345 347 348 348 347 344 344 345 347 348 348 347 347 347 345 345 348 356 6 10 10 6 3 1 2 8 15 18 19 19 23 24 18 2 349 344 347 354 3 15 36 68 76 74 67 56 50 47 46 46 46 47 53 69 85 83 65 41 31 24 28 43 58
346 346 345 345 344 344 345 347 349 348 346 343 343 344 346 348 348 347 346 346 345 345 348 354 2 4 3 0 358 355 354 359 5 9 9 7 11 16 16 6 354 348 349 355 8 27 53 75 76 73 67 58 51 47 45 44 41 39 40 48 73 74 64 50 44 36 31 33 41
346 346 346 346 345 345 346 348 349 348 346 343 343 344 346 347 346 345 345 347 347 348 349 352 356 357 356 355 351 345 342 344 347 352 359 4 8 12 13 8 357 350 350 355 10 31 60 81 80 76 70 62 54 48 46 42 38 33 29 32 55 66 63 56 51 43 35 29 29
346 346 346 346 346 346 347 349 349 348 346 344 344 344 345 346 344 345 348 353 355 354 353 351 353 353 353 352 346 341 339 340 339 341 350 6 9 7 4 358 355 351 351 355 7 24 53 82 86 84 80 73 62 53 48 45 38 31 28 32 53 63 64 57 49 43 36 28 24